Location: Woodhurst
(52.3667°N, 0.0667°W)
Time: 04:58:05
(UTC+00:00)

Meteor 1-27 Rocket - Pass Details

Date: 19 May 2025
Orbit: 829 x 908 km, 81.3° (Epoch: 13 June)

Event Time Altitude Azimuth Distance (km) Brightness Sun altitude
Exits shadow 22:30:51 23° 161° (SSE) 1,710 4.7 -15.3°
Maximum altitude 22:34:07 52° 95° (E) 1,038 4.0 -15.4°
Drops below altitude 10° 22:39:29 10° 21° (NNE) 2,456 6.9 -15.7°
Sets 22:41:56 0° 17° (NNE) 3,390 7.8 -15.8°
